[[{"header":{"parameterUnit":"m.s-1","parameterCategory":1,"la1":30.2991,"la2":30.254,"lo1":-89.0895,"lo2":-89.0444,"dy":0.0017,"dx":0.0017,"nx":28,"ny":28,"refTime":"2024-03-06T03:00:00:Z","depth":0,"parameterNumber":2,"parameterNumberName":"U-component_of_WINDS"},"data":[0,0,0,0,0,0,0,0,0,0,0,0,0,0,0,0,0,0,0,0,0,0,0,0,0,0,0,0,0,0,0,0,0,0,0,0,0,0,0,0,0,0,0,0,0,0,0,0,0,0,0,0,0,0,0,0,0,0,2.2896,2.2897,0,2.2984,2.2985,2.2986,2.296,2.2958,2.2957,2.2955,2.3048,2.3052,2.3056,0,0,0,0,0,0,0,0,0,0,0,0,0,2.2711,2.2714,2.2896,2.2897,2.2898,2.2983,2.2985,2.2986,2.2961,2.2958,2.2956,2.2954,2.3046,2.3051,2.3056,0,0,0,0,0,0,0,0,0,0,0,0,0,2.2794,2.2716,2.2896,2.2896,2.2897,2.2983,2.2985,2.2986,2.2961,2.2958,2.2956,2.2953,2.3045,2.3051,2.3057,2.3149,0,0,2.3076,2.3078,0,0,0,0,0,0,0,0,2.279,2.2801,2.2895,2.2896,2.2897,2.2958,2.2953,2.3041,2.2962,2.2937,2.2955,2.2952,2.302,2.3028,2.3051,2.3154,2.3158,2.3076,2.308,2.3083,2.3085,0,0,0,0,0,0,0,2.2784,2.2797,2.2931,2.2896,2.2898,2.2893,2.2902,2.297,2.2993,2.2939,2.2937,2.2948,2.302,2.3045,2.3053,2.3159,2.3076,2.3082,2.3086,2.3088,2.3346,2.3349,0,0,0,0,0,0,2.2777,2.2792,2.2928,2.2933,2.2835,2.2898,2.2908,2.2941,2.2992,2.2997,2.295,2.2946,2.3035,2.3045,2.3056,2.317,2.3083,2.3089,2.3092,2.3343,2.3346,2.335,0,0,0,0,0,0,2.2773,2.2789,2.2924,2.2863,2.2879,2.2904,2.2942,2.2944,2.2969,2.3,2.3005,2.297,2.3034,2.3047,2.3127,2.3173,2.3091,2.3097,2.3339,2.3344,2.3348,2.3397,0,0,0,0,0,0,2.2768,2.2788,2.2822,2.2863,2.2883,2.2993,2.2945,2.2948,2.2979,2.2975,2.3021,2.3026,2.3033,2.3118,2.3133,2.318,2.3102,2.3335,2.3341,2.3347,2.3392,2.3403,2.3413,0,0,0,0,0,2.2761,2.2833,2.2824,2.284,2.2926,2.2995,2.3007,2.3012,2.2983,2.3019,2.3039,2.3024,2.3165,2.3126,2.3143,2.3192,2.3332,2.3339,2.3346,2.3387,2.3401,2.3412,0,0,0,0,0,0,2.2797,2.2838,2.2829,2.2916,2.2952,2.2991,2.3036,2.3026,2.3073,2.3067,2.3073,2.3084,2.3166,2.3187,2.3143,2.3286,2.3244,2.3255,2.327,2.3283,2.3293,2.3287,2.3107,0,0,0,0,0,2.2814,2.2866,2.29,2.2973,2.2992,2.3011,2.3041,2.3043,2.3081,2.3097,2.3123,2.3162,2.3215,2.325,2.33,2.3394,2.3405,2.3437,2.3447,2.3456,2.3465,2.3519,2.3534,2.3373,2.3373,2.3372,0,0,2.2852,2.2881,2.2913,2.2981,2.3009,2.3065,2.3024,2.3083,2.3125,2.3106,2.3183,2.3204,2.3248,2.3336,2.3376,2.3356,2.3512,2.3464,2.3471,2.3476,2.3528,2.3543,2.3557,2.3377,2.3377,2.3376,0,0,2.2949,2.2975,2.304,2.307,2.3113,2.3125,2.3141,2.3182,2.3195,2.3272,2.326,2.331,2.3401,2.3433,2.3462,2.3573,2.3562,2.3589,2.3645,2.3697,2.371,2.3721,2.3763,2.3778,2.3598,2.3598,2.3598,0,2.299,2.3071,2.3075,2.3136,2.3167,2.3152,2.3219,2.3248,2.3306,2.3329,2.3305,2.342,2.3449,2.3545,2.3573,2.3595,2.3615,2.3584,2.3707,2.3719,2.3729,2.377,2.3785,2.3602,2.3601,2.3601,2.3601,0,2.3122,2.3178,2.3226,2.3282,2.3319,2.3382,2.3397,2.3434,2.3433,2.3448,2.3528,2.3562,2.362,2.3643,2.3642,2.374,2.3727,2.3705,2.3664,2.3748,2.3786,2.3801,2.3606,2.3605,2.3604,2.3603,0,0,2.3244,2.3302,2.3319,2.3346,2.3393,2.3438,2.3502,2.3558,2.3591,2.3631,2.3687,2.3765,2.3746,2.3778,2.3781,2.3827,2.3916,2.38,2.3801,2.3822,2.4029,2.4046,2.4063,2.3908,2.3911,2.3913,2.4026,0,2.3346,2.3458,2.3464,2.3566,2.362,2.3607,2.3663,2.3699,2.3716,2.3765,2.3783,2.3839,2.3809,2.3829,2.3873,2.3895,2.3957,2.3887,2.3962,2.3964,2.3953,2.4083,2.4101,2.4206,2.404,2.4043,2.4045,0,2.3481,2.3526,2.3634,2.3675,2.3698,2.3748,2.3802,2.3848,2.389,2.3899,2.3935,2.3932,2.4,2.3955,2.405,2.4002,2.4033,2.4048,2.4052,2.4061,2.4011,2.4097,2.4239,2.4256,2.4068,2.4066,2.4064,0,2.3562,2.3649,2.3726,2.3748,2.3798,2.3834,2.3857,2.3896,2.393,2.3977,2.3999,2.4054,2.4084,2.4127,2.4139,2.4105,2.4234,2.419,2.4246,2.4246,2.4275,2.4273,2.4426,2.4292,2.4291,2.4291,2.4291,0,2.3677,2.3744,2.3763,2.381,2.3886,2.3892,2.3967,2.3987,2.4022,2.4075,2.4066,2.4116,2.4128,2.4181,2.4191,2.4269,2.4282,2.4293,2.4295,2.4295,2.4294,2.4316,2.431,2.4295,2.4294,2.4293,2.4293,0,2.3781,2.3796,2.3879,2.3919,2.3931,2.3985,2.4021,2.4067,2.4082,2.4149,2.4165,2.419,2.4252,2.4268,2.4341,2.4348,2.4441,2.4435,2.4427,2.4428,2.4483,2.4479,2.4657,2.4682,2.453,2.4531,2.4532,0,2.3854,2.3905,2.3952,2.3986,2.401,2.4065,2.41,2.4109,2.4146,2.4198,2.4239,2.4299,2.4348,2.4447,2.4473,2.453,2.4527,2.4585,2.4535,2.4534,2.453,2.4528,2.4534,2.4595,2.4597,2.4598,2.4599,0,2.3984,2.3989,2.4039,2.4093,2.4134,2.4177,2.4218,2.4247,2.4262,2.4304,2.4366,2.4404,2.448,2.4541,2.4598,2.4623,2.4615,2.4615,2.4631,2.4632,2.4626,2.4633,2.4455,2.4611,2.461,2.4609,2.4608,2.4608,2.4076,2.4122,2.4162,2.4219,2.4251,2.429,2.4336,2.4357,2.4409,2.4471,2.4473,2.4541,2.4584,2.466,2.4689,2.4744,2.4726,2.4749,2.4756,2.4762,2.4768,2.4616,2.4754,2.4754,2.4753,2.4753,2.4753,0,2.4208,2.4233,2.4285,2.4342,2.4388,2.4374,2.4419,2.4459,2.4519,2.4558,2.4607,2.468,2.4739,2.477,2.4829,2.4868,2.4866,2.4883,2.4882,2.4888,2.4779,2.476,2.4884,2.4884,2.4884,2.4884,2.4884,2.4884,2.4281,2.4359,2.4369,2.4463,2.4488,2.4555,2.4582,2.4619,2.4651,2.4732,2.4781,2.48,2.4837,2.49,2.4954,2.4962,2.4985,2.5006,2.5012,2.4909,2.4896,2.4883,2.4865,2.501,2.501,2.5117,2.5118,2.5119]},{"header":{"parameterUnit":"m.s-1","parameterCategory":1,"la1":30.2991,"la2":30.254,"lo1":-89.0895,"lo2":-89.0444,"dy":0.0017,"dx":0.0017,"nx":28,"ny":28,"refTime":"2024-03-06T03:00:00:Z","depth":0,"parameterNumber":3,"parameterNumberName":"V-component_of_WINDS"},"data":[0,0,0,0,0,0,0,0,0,0,0,0,0,0,0,0,0,0,0,0,0,0,0,0,0,0,0,0,0,0,0,0,0,0,0,0,0,0,0,0,0,0,0,0,0,0,0,0,0,0,0,0,0,0,0,0,0,0,-1.6974,-1.6973,0,-1.6947,-1.6947,-1.6947,-1.6919,-1.6919,-1.6919,-1.6918,-1.6889,-1.6889,-1.6889,0,0,0,0,0,0,0,0,0,0,0,0,0,-1.7,-1.7,-1.6974,-1.6973,-1.6973,-1.6947,-1.6947,-1.6947,-1.6919,-1.6919,-1.6919,-1.6918,-1.6889,-1.6889,-1.6888,0,0,0,0,0,0,0,0,0,0,0,0,0,-1.6982,-1.6999,-1.6974,-1.6956,-1.6955,-1.6947,-1.6947,-1.6946,-1.6919,-1.6919,-1.6918,-1.6918,-1.689,-1.6889,-1.6888,-1.6896,0,0,-1.6886,-1.6886,0,0,0,0,0,0,0,0,-1.6983,-1.6981,-1.6959,-1.6958,-1.6956,-1.6936,-1.6945,-1.6929,-1.692,-1.6933,-1.6918,-1.6918,-1.6905,-1.6903,-1.6899,-1.6894,-1.6893,-1.6886,-1.6886,-1.6886,-1.6886,0,0,0,0,0,0,0,-1.6985,-1.6982,-1.6963,-1.6959,-1.6957,-1.695,-1.6947,-1.6942,-1.6922,-1.6932,-1.693,-1.6927,-1.6904,-1.69,-1.6899,-1.6892,-1.6886,-1.6886,-1.6885,-1.6885,-1.6893,-1.6893,0,0,0,0,0,0,-1.6989,-1.6984,-1.6964,-1.6962,-1.6969,-1.695,-1.6946,-1.6943,-1.6922,-1.6919,-1.6927,-1.6926,-1.6902,-1.6899,-1.6897,-1.6905,-1.6886,-1.6885,-1.6885,-1.6892,-1.6893,-1.6893,0,0,0,0,0,0,-1.6989,-1.6987,-1.6965,-1.6972,-1.6969,-1.695,-1.6946,-1.6943,-1.6939,-1.6919,-1.6915,-1.6927,-1.6901,-1.6898,-1.6897,-1.6903,-1.6885,-1.6884,-1.6891,-1.6892,-1.6893,-1.692,0,0,0,0,0,0,-1.699,-1.6988,-1.699,-1.6973,-1.6969,-1.6965,-1.6947,-1.6942,-1.6938,-1.6935,-1.6918,-1.6914,-1.69,-1.6898,-1.6896,-1.6902,-1.6884,-1.6891,-1.6892,-1.6893,-1.6918,-1.6921,-1.6924,0,0,0,0,0,-1.6991,-1.6998,-1.6991,-1.6988,-1.6972,-1.6965,-1.6963,-1.6947,-1.6939,-1.6941,-1.6929,-1.6915,-1.6903,-1.6898,-1.6895,-1.6902,-1.689,-1.6891,-1.6893,-1.6917,-1.6921,-1.6924,0,0,0,0,0,0,-1.7016,-1.6995,-1.6987,-1.6988,-1.6979,-1.6961,-1.6963,-1.6952,-1.6944,-1.6942,-1.6922,-1.6919,-1.6919,-1.691,-1.6904,-1.6908,-1.6895,-1.6896,-1.6914,-1.6917,-1.692,-1.6922,-1.6883,0,0,0,0,0,-1.7022,-1.7019,-1.7001,-1.7004,-1.7,-1.6983,-1.6979,-1.6968,-1.6957,-1.6953,-1.694,-1.693,-1.6924,-1.692,-1.6913,-1.6917,-1.6913,-1.692,-1.6923,-1.6926,-1.6927,-1.6929,-1.6932,-1.6898,-1.6898,-1.6898,0,0,-1.7033,-1.7022,-1.7021,-1.7009,-1.7,-1.6997,-1.6979,-1.6976,-1.6974,-1.6952,-1.695,-1.694,-1.6928,-1.6929,-1.6929,-1.6921,-1.6935,-1.6928,-1.693,-1.6929,-1.693,-1.6934,-1.6936,-1.6899,-1.6898,-1.6898,0,0,-1.7053,-1.7044,-1.7046,-1.7038,-1.7026,-1.7014,-1.7015,-1.6999,-1.6992,-1.699,-1.6973,-1.697,-1.696,-1.6952,-1.6946,-1.6965,-1.6952,-1.6963,-1.6978,-1.6981,-1.6983,-1.6986,-1.6992,-1.6995,-1.6964,-1.6964,-1.6964,0,-1.7069,-1.7064,-1.7048,-1.7047,-1.7042,-1.7023,-1.7025,-1.7018,-1.7004,-1.7001,-1.6993,-1.6981,-1.6971,-1.697,-1.6975,-1.6971,-1.6971,-1.6964,-1.6984,-1.6986,-1.6988,-1.6994,-1.6997,-1.6965,-1.6965,-1.6965,-1.6965,0,-1.7084,-1.7081,-1.7084,-1.7072,-1.7068,-1.7068,-1.7052,-1.7049,-1.7039,-1.7029,-1.7027,-1.7015,-1.7005,-1.7005,-1.6994,-1.7003,-1.6999,-1.6988,-1.6974,-1.6993,-1.6999,-1.7001,-1.6968,-1.6967,-1.6967,-1.6966,0,0,-1.7117,-1.7098,-1.7099,-1.7094,-1.7079,-1.7076,-1.7076,-1.7068,-1.7066,-1.7058,-1.7057,-1.705,-1.704,-1.7034,-1.7022,-1.7024,-1.704,-1.7013,-1.7013,-1.7019,-1.7049,-1.7058,-1.7061,-1.7032,-1.7032,-1.7033,-1.7051,0,-1.7134,-1.7133,-1.7119,-1.7122,-1.7119,-1.7102,-1.7102,-1.7093,-1.7084,-1.708,-1.7069,-1.7064,-1.7052,-1.7048,-1.705,-1.7038,-1.7046,-1.7037,-1.7031,-1.7031,-1.7035,-1.7063,-1.7072,-1.7089,-1.7053,-1.7053,-1.7053,0,-1.7154,-1.7147,-1.715,-1.7137,-1.7135,-1.7135,-1.7127,-1.7124,-1.7113,-1.7107,-1.7101,-1.7088,-1.7087,-1.7074,-1.7073,-1.7067,-1.7064,-1.7058,-1.7058,-1.7057,-1.7043,-1.7063,-1.7094,-1.7097,-1.7056,-1.7056,-1.7056,0,-1.7178,-1.717,-1.7171,-1.7167,-1.7151,-1.7151,-1.7145,-1.7134,-1.7131,-1.7124,-1.7121,-1.7114,-1.711,-1.7105,-1.7091,-1.7083,-1.7091,-1.7077,-1.7085,-1.7085,-1.7087,-1.7087,-1.7118,-1.7085,-1.7085,-1.7085,-1.7085,0,-1.7198,-1.7201,-1.7182,-1.7182,-1.7184,-1.7169,-1.7171,-1.7163,-1.7154,-1.7152,-1.7137,-1.7136,-1.7117,-1.7114,-1.7103,-1.7103,-1.7102,-1.7096,-1.7093,-1.7097,-1.7098,-1.7095,-1.7093,-1.7086,-1.7086,-1.7085,-1.7085,0,-1.7225,-1.7213,-1.7212,-1.7198,-1.7195,-1.7197,-1.7185,-1.7184,-1.7175,-1.7173,-1.7172,-1.7156,-1.7152,-1.7137,-1.7129,-1.7122,-1.7126,-1.712,-1.7129,-1.7127,-1.7136,-1.7136,-1.7166,-1.717,-1.7135,-1.7135,-1.7135,0,-1.7239,-1.7241,-1.7227,-1.7225,-1.722,-1.7217,-1.7213,-1.7198,-1.7196,-1.7185,-1.7186,-1.7181,-1.7175,-1.7169,-1.7157,-1.7151,-1.7145,-1.7156,-1.7144,-1.7148,-1.7145,-1.7145,-1.7146,-1.7159,-1.7159,-1.716,-1.716,0,-1.7265,-1.7259,-1.7255,-1.7249,-1.7246,-1.724,-1.7234,-1.7233,-1.7216,-1.7214,-1.721,-1.7206,-1.7198,-1.7193,-1.7185,-1.7178,-1.7166,-1.7164,-1.7166,-1.717,-1.7175,-1.7173,-1.7136,-1.7163,-1.7163,-1.7163,-1.7162,-1.7162,-1.7286,-1.7286,-1.7277,-1.7274,-1.7268,-1.7262,-1.7262,-1.7252,-1.7249,-1.7242,-1.7233,-1.723,-1.7221,-1.7209,-1.7203,-1.7201,-1.7194,-1.7196,-1.7197,-1.7198,-1.72,-1.7176,-1.7199,-1.7199,-1.7199,-1.7199,-1.7199,0,-1.7311,-1.7304,-1.7301,-1.7293,-1.729,-1.7281,-1.7273,-1.7271,-1.7269,-1.7262,-1.7258,-1.7253,-1.7248,-1.7237,-1.7231,-1.7231,-1.7226,-1.723,-1.723,-1.7228,-1.7206,-1.7205,-1.7235,-1.7235,-1.7235,-1.7235,-1.7235,-1.7235,-1.7323,-1.7325,-1.7318,-1.7316,-1.7309,-1.7307,-1.7304,-1.7299,-1.7293,-1.7289,-1.7285,-1.7278,-1.7269,-1.7262,-1.7258,-1.7254,-1.7253,-1.7259,-1.7254,-1.7233,-1.723,-1.7227,-1.7226,-1.7259,-1.7259,-1.7277,-1.7277,-1.7277]}]]